Starlink 3135

operational
NORAD ID: 49424 Int'l Des: 2021-104 Owner: SPXS Country: US Constellation: starlink
LEOCIRCULAR

Starlink 3135について

説明を読み込み中...

リアルタイム位置

3D地球を読み込み中...

次回通過

高度履歴

Altitude vs Time

uPlot chart will show altitude changes over time

軌道要素

1 49424U 21104S 25257.49126369 -.00001080 00000-0 -49804-4 0 9992
2 49424 53.2170 300.1079 0000973 84.6237 275.4866 15.08829753212025
Epoch: Sep 14, 2025 • Age: 23 hours

現在のステータス

高度 539.9 km
速度 7.60 km/s
衛星直下点 18.97°N, 54.69°W
打ち上げ日 Nov 13, 2021
運用期間 3.8 years
タイプ internet

技術仕様

分類 Payload
質量 290.00 kg
乾燥質量 270.00 kg
総質量 290.00 kg
長さ 0.20 m
直径 2.80 m
スパン 9.00 m
形状 Box + pan
製造者 SPXS
バスタイプ Starlink
フェーズステータス In Orbit
所有者/国 SPXS/US

大規模コンステレーション

Loading constellations...